Hourly Data Report for September 09, 2017

All times are specified in Local Standard Time (LST). Add 1 hour to adjust for Daylight Saving Time where and when it is observed.

EDMUNDSTON
NEW BRUNSWICK

47°25'00.000" N
68°19'28.040" W
154.20 m
8101303
71590
ERM

Download Data

Hourly Data (September 2017)
Hourly Data Report for September 9, 2017
Temp Definition
°C
Dew Point Temp Definition
°C
Rel Hum Definition
%
Wind Dir Definition
10's deg

Wind Spd Definition
km/h
Visibility Definition
km
Stn Press Definition
kPa
Hmdx Definition


Wind Chill Definition


Weather Definition


TIME
00:00 10.7 9.9 95 35 4   100.07     LegendNANA
01:00 10.0 9.1 95 35 7   100.09     LegendNANA
02:00 9.8 9.0 95 33 5   100.10     LegendNANA
03:00 9.9 9.1 95 31 2   100.12     LegendNANA
04:00 9.5 8.8 95 31 2   100.16     LegendNANA
05:00 9.6 8.8 95 29 2   100.22     LegendNANA
06:00 9.4 8.7 95 35 2   100.30     LegendNANA
07:00 10.1 9.5 96 0 1   100.38     LegendNANA
08:00 12.1 11.4 96 29 4   100.42     LegendNANA
09:00 13.6 11.6 88 28 6   100.45     LegendNANA
10:00 15.8 11.7 76 27 9   100.48     LegendNANA
11:00 17.1 11.7 70 33 5   100.47     LegendNANA
12:00 19.0 10.4 57 6 8   100.47     LegendNANA
13:00 19.6 10.1 54 5 9   100.45     LegendNANA
14:00 18.3 10.5 61 7 8   100.43     LegendNANA
15:00 14.8 11.6 81 6 5   100.45     LegendNANA
16:00 14.9 11.3 79 27 3   100.50     LegendNANA
17:00 14.6 11.5 82 23 4   100.52     LegendNANA
18:00 15.1 12.4 84 29 5   100.55     LegendNANA
19:00 13.9 12.5 91 26 4   100.57     LegendNANA
20:00 12.1 11.2 94 31 5   100.64     LegendNANA
21:00 10.0 9.1 94 30 2   100.68     LegendNANA
22:00 9.8 9.0 95 31 3   100.72     LegendNANA
23:00 8.8 8.0 95 31 2   100.72     LegendNANA

Notes on Data Quality.

Legend

  • E = Estimated
  • M = Missing
  • NA = Not Available
  • ‡ = Partner data that is not subject to review by the National Climate Archives
Date modified: